Regional Weather Roundup
Issued by NWS

Home | Current Version | Previous Version | Graphics & Text | Print | Product List | Glossary On
Versions: 1 2 3 4 5 6 7 8 9 10 11 12 13 14 15 16 17 18 19 20 21 22 23 24 25 26 27 28 29 30 31 32 33 34 35 36 37 38 39 40 41 42 43 44 45 46 47 48 49 50
000
ASUS45 KTFX 030510
RWRMT
MONTANA REGIONAL WEATHER ROUNDUP
NATIONAL WEATHER SERVICE GREAT FALLS MT
1100 PM MDT SUN AUG 02 2015

NOTE: "FAIR" INDICATES FEW OR NO CLOUDS BELOW 12000 FEET WITH NO
SIGNIFICANT WEATHER AND/OR OBSTRUCTIONS TO VISIBILITY.

MTZ001>007-043-030600-
WEST OF THE DIVIDE

CITY           SKY/WX    TMP DP  RH WIND       PRES   REMARKS
KALISPELL      CLEAR     64  39  39 CALM      29.87F
MISSOULA       CLEAR     73  35  25 CALM      29.90R
BUTTE          PTCLDY    69  33  26 E6        30.08S
MULLAN PASS    CLEAR     71  20  14 NW6       30.12S
DEER LODGE       N/A     64  34  32 CALM      30.05S
EUREKA           N/A     72  34  25 CALM      29.86S
HAMILTON         N/A     68  43  40 S5        29.92F
LIBBY            N/A     72  27  18 CALM      29.87S
PLAINS           N/A     71  39  31 CALM      29.88R
RONAN            N/A     64  43  46 NE2       29.94S
$$

MTZ008-052>055-030600-
SOUTHWEST MONTANA

CITY           SKY/WX    TMP DP  RH WIND       PRES   REMARKS
BOZEMAN        PTCLDY    60  45  57 NW6       30.01R
DILLON         PTCLDY    71  37  28 E3        30.02R
W YELLOWSTONE  PTCLDY    54  41  62 SE3       30.16S
THREE FORKS      N/A     59  59 100 CALM      30.00R
TWIN BRIDGES     N/A     76  32  20 N9        30.00S
$$

MTZ009-010-012-014-046-048-049-054-030600-
EAST SLOPES AND CENTRAL MONTANA

CITY           SKY/WX    TMP DP  RH WIND       PRES   REMARKS
CUT BANK       CLEAR     70  44  39 SE10      29.98S
GREAT FALLS    CLEAR     68  46  45 E7        29.96S
MALMSTROM AFB  CLEAR     68  47  47 E2        29.96S
HELENA         PTCLDY    74  40  29 SW6       29.97R
$$

MTZ011-013-016-021-045-047-050-051-030600-
NORTH CENTRAL MONTANA

CITY           SKY/WX    TMP DP  RH WIND       PRES   REMARKS
HAVRE          CLEAR     70  52  52 E12       29.96S
LEWISTOWN      CLEAR     67  46  47 E8        30.05S
CHINOOK          N/A     66  55  68 E5        29.98S
FORT BENTON      N/A     73  48  40 E13G18    29.94S
$$

MTZ017>020-022>027-061-062-030600-
NORTHEAST MONTANA

CITY           SKY/WX    TMP DP  RH WIND       PRES   REMARKS
GLASGOW        CLEAR     65  48  54 E10       30.01S
JORDAN           N/A     68  48  48 E8        30.01S
SIDNEY         CLEAR     61  46  59 NW6       30.02R
WOLF POINT     CLEAR     65  48  54 E6        30.02S
MALTA            N/A     66  52  60 CALM      29.97R
PLENTYWOOD       N/A     59  50  72 NE5       30.03R
POPLAR           N/A     61  48  63 NE6       30.03S
$$

MTZ028>42-056>058-030600-
SOUTHCENTRAL AND SOUTHEAST MONTANA

CITY           SKY/WX    TMP DP  RH WIND       PRES   REMARKS
BAKER          CLEAR     60  46  59 E8        30.04F
BILLINGS       PTCLDY    72  42  34 N8        30.02R
LIVINGSTON     CLEAR     69  44  40 SE9       30.03S
MILES CITY     CLEAR     71  49  45 NE9       30.00S
FORSYTH          N/A     70  48  46 E5        30.00R
LAUREL           N/A     71  40  32 N1        30.01R
ROUNDUP          N/A     71  39  31 CALM      29.95S
$$

REGIONAL REPORTS...DAKOTAS

CITY           SKY/WX    TMP DP  RH WIND       PRES   REMARKS
WILLISTON      CLEAR     65  49  56 N3        30.02R
MINOT          CLEAR     61  50  67 W8        29.96R
DICKINSON      CLEAR     59  49  69 CALM      30.02R
BEACH          FAIR      57  52  82 CALM      30.05S
CROSBY         FAIR      54  52  94 NW7       30.02R
BISMARCK       CLEAR     58  52  80 CALM      29.98R
GRAND FORKS    CLEAR     57  49  74 NW7       29.86R
FARGO          CLEAR     58  51  78 W7        29.87R
BUFFALO SD       N/A     64  51  62 NE8       29.98S
RAPID CITY     CLEAR     66  53  63 NE3       30.03S
$$

REGIONAL REPORTS...WYOMING/IDAHO/WASHINGTON

CITY           SKY/WX    TMP DP  RH WIND       PRES   REMARKS
GILLETTE       CLEAR     60  47  61 SW5       30.06S
SHERIDAN       CLEAR     61  47  59 W3        30.04R
BUFFALO WY     CLEAR     66  43  43 W5        30.12R
CODY           CLEAR     70  41  35 NW3       30.09S
YELLOWSTONE LA   N/A     52  36  54 CALM      30.27F
IDAHO FALLS    PTCLDY    61  49  64 CALM      29.95S
SALMON         MOCLDY    75  39  27 SE5       29.90R
BOISE          MOCLDY    85  44  23 CALM      29.77S
SPOKANE        PTCLDY    82  21  10 SW5       29.84S
$$

REGIONAL REPORTS...ALBERTA

CITY           SKY/WX    TMP DP  RH WIND       PRES   REMARKS
EDMONTON       CLEAR     63  55  77 E3        29.93F
CALGARY        PTCLDY    70  52  52 SE10G17   29.97S
LETHBRIDGE     CLEAR     63  54  72 SE8       29.93S
MEDICINE HAT   CLEAR     72  52  49 E14       29.95S
WATERTON GATE    N/A     55  52  88 CALM        N/A
CARDSTON         N/A     63  48  59 SW2         N/A
MILK RIVER       N/A     61  48  63 SE5         N/A
ONEFOUR          N/A     63  50  63 E12         N/A
$$

REGIONAL REPORTS...SASKATCHEWAN

CITY           SKY/WX    TMP DP  RH WIND       PRES   REMARKS
SWIFT CURRENT  CLEAR     59  52  77 SE8       30.03S
REGINA         PTCLDY    55  52  88 W3        30.01R
SASKATOON      PTCLDY    61  52  72 CALM      30.00S
CYPRESS HILLS    N/A     61  48  63 SE8         N/A
VAL MARIE        N/A     57  52  82 NE6         N/A
ROCKGLEN         N/A     57  50  77 SE1         N/A
ASSINIBOIA       N/A     61  55  82 SE5         N/A
$$


USA.gov is the U.S. government's official web portal to all federal, state and local government web resources and services.